Location: Napoli
(40.8330°N, 14.2500°E)
Time: 21:28:06
(UTC+02:00)

ISS - Visible Passes

Search period start: 08 May 2021 00:00
Search period end: 18 May 2021 00:00
Orbit: 418 x 421 km, 51.6° (Epoch: 08 May)

Date Brightness Start Highest point End Pass type
(mag) Time Alt. Az. Time Alt. Az. Time Alt. Az.
08 May -1.1 02:49:24 17° NNW 02:49:24 17° NNW 02:51:43 10° NNE visible
08 May -0.8 04:25:24 10° NNW 04:27:12 14° N 04:29:01 10° NE visible
09 May -0.6 02:03:26 15° NNE 02:03:26 15° NNE 02:04:26 10° NNE visible
09 May -0.7 03:37:47 10° NNW 03:39:30 13° N 03:41:13 10° NNE visible
09 May -1.1 05:14:34 10° NNW 05:17:16 22° NNE 05:19:58 10° ENE visible
10 May -0.7 02:50:22 11° NNW 02:51:48 14° N 02:53:36 10° NNE visible
10 May -0.8 04:27:16 10° NNW 04:29:38 17° NNE 04:32:01 10° ENE visible
11 May -0.7 02:04:21 15° N 02:04:21 15° N 02:06:09 10° NNE visible
11 May -0.7 03:39:55 10° NNW 03:41:59 15° N 03:44:01 10° NE visible
11 May -2.3 05:16:15 10° NW 05:19:29 41° NNE 05:22:42 10° ESE visible
12 May -0.4 01:18:17 12° NNE 01:18:17 12° NNE 01:18:48 10° NNE visible
12 May -0.6 02:52:28 10° NNW 02:54:17 14° N 02:56:05 10° NE visible
12 May -1.6 04:28:56 10° NW 04:31:56 29° NNE 04:34:56 10° E visible
13 May -0.5 02:05:01 10° NNW 02:06:34 13° N 02:08:17 10° NNE visible
13 May -1.1 03:41:38 10° NNW 03:44:21 22° NNE 03:47:03 10° ENE visible
14 May -0.5 01:18:38 13° N 01:18:52 14° N 01:20:40 10° NNE visible
14 May -0.8 02:54:20 10° NNW 02:56:43 18° NNE 02:59:05 10° ENE visible
14 May -3.4 04:30:39 10° NW 04:34:01 67° NE 04:37:22 10° ESE visible
14 May -2.7 21:14:13 10° S 21:17:00 24° SE 21:19:47 10° ENE visible
14 May -2.4 22:50:28 10° WSW 22:53:40 40° NNW 22:55:39 20° NNE visible
15 May -0.6 00:29:08 10° NW 00:31:10 15° N 00:33:12 10° NNE visible
15 May -0.6 02:07:00 10° NNW 02:09:02 15° N 02:11:05 10° NE visible
15 May -2.4 03:43:17 10° NW 03:46:32 42° NNE 03:49:45 10° ESE visible
15 May -3.4 22:02:51 10° WSW 22:06:10 64° NW 22:09:31 10° NE visible
15 May -0.8 23:41:09 10° WNW 23:43:30 17° NNW 23:45:50 10° NNE visible
16 May -0.4 01:19:32 10° NNW 01:21:20 14° N 01:23:08 10° NE visible
16 May -1.7 02:55:58 10° NW 02:58:59 29° NNE 03:02:00 10° E visible
16 May -3.4 04:32:40 10° WNW 04:35:52 40° SW 04:39:03 10° SSE visible
16 May -3.9 21:15:24 10° SW 21:18:43 75° SE 21:22:05 10° ENE visible
16 May -1.1 22:53:11 10° WNW 22:55:51 21° NNW 22:58:32 10° NNE visible
17 May -0.4 00:31:56 10° NNW 00:33:37 13° N 00:35:19 10° NNE visible
17 May -1.2 02:08:41 10° NNW 02:11:24 22° NNE 02:14:06 10° ENE visible
17 May -3.9 03:45:07 10° WNW 03:48:30 72° SW 03:51:51 10° SE visible
17 May -1.6 22:05:17 10° W 22:08:15 28° NNW 22:11:14 10° NE visible
17 May -0.4 23:44:07 10° NW 23:45:54 14° N 23:47:42 10° NNE visible
